DW4604 Weather Reports


time (UTC)temp
F
wind
direction
speed
knots
gust
knots
rain 1hr
in
rain 24hr
in
rain mn
in
humidity
%
barometer
mb
20260504195001 59 0 0.0 0.0 0.00 0.00 0.00 70 1011.7
20260504194501 59 0 0.0 0.0 0.00 0.00 0.00 69 1011.6
20260504194003 59 0 0.0 0.0 0.00 0.00 0.00 69 1011.6
20260504193501 59 0 0.0 0.0 0.00 0.00 0.00 68 1011.5
20260504193001 60 0 0.0 0.0 0.00 0.00 0.00 67 1011.6
20260504192002 60 0 0.0 0.0 0.00 0.00 0.00 66 1011.6
20260504191502 61 0 0.0 0.0 0.00 0.00 0.00 65 1011.6
20260504190502 61 0 0.0 0.0 0.00 0.00 0.00 64 1011.5
20260504190002 62 0 0.0 0.0 0.00 0.00 0.00 63 1011.5
20260504185501 62 0 0.0 0.0 0.00 0.00 0.00 63 1011.5
20260504185001 62 0 0.0 0.0 0.00 0.00 0.00 62 1011.4
20260504183502 64 0 0.0 0.0 0.00 0.00 0.00 58 1011.3
20260504182503 65 0 0.0 0.0 0.00 0.00 0.00 56 1011.2
20260504182002 66 0 0.0 0.0 0.00 0.00 0.00 55 1011.2
20260504181001 68 0 0.0 0.0 0.00 0.00 0.00 51 1011.2
20260504180502 69 0 0.0 0.0 0.00 0.00 0.00 49 1011.1
20260504180002 70 0 0.0 0.0 0.00 0.00 0.00 48 1011.1
20260504175501 70 0 0.0 0.0 0.00 0.00 0.00 48 1011.1
20260504175001 71 0 0.0 0.0 0.00 0.00 0.00 47 1011.1
20260504174001 71 0 0.0 0.0 0.00 0.00 0.00 46 1011.1
20260504172002 72 0 0.0 0.0 0.00 0.00 0.00 47 1011.0
20260504171501 73 0 0.0 0.0 0.00 0.00 0.00 48 1010.9
20260504171001 73 0 0.0 0.0 0.00 0.00 0.00 45 1010.9
20260504170502 74 0 0.0 0.0 0.00 0.00 0.00 45 1010.9
20260504151002 77 0 0.0 0.0 0.00 0.00 0.00 42 1011.2
20260504150502 77 0 0.0 0.0 0.00 0.00 0.00 40 1011.2
20260504140502 78 0 0.0 0.0 0.00 0.00 0.00 43 1011.8
20260504130502 78 0 0.0 0.0 0.00 0.00 0.00 38 1012.1
20260504110504 76 0 0.0 0.0 0.00 0.00 0.00 41 1013.3
20260504100503 77 0 0.0 0.0 0.00 0.00 0.00 40 1014.1
20260504082003 73 0 0.0 0.0 0.00 0.00 0.00 42 1014.6
20260504081504 72 0 0.0 0.0 0.00 0.00 0.00 43 1014.6
20260504081003 72 0 0.0 0.0 0.00 0.00 0.00 44 1014.6
20260504080504 72 0 0.0 0.0 0.00 0.00 0.00 43 1014.6
20260504050504 53 0 0.0 0.0 0.00 0.00 0.00 68 1014.5
20260504050004 52 0 0.0 0.0 0.00 0.00 0.00 69 1014.5
20260504045505 51 0 0.0 0.0 0.00 0.00 0.00 70 1014.6
20260504045004 51 0 0.0 0.0 0.00 0.00 0.00 72 1014.6
20260504044505 50 0 0.0 0.0 0.00 0.00 0.00 74 1014.5
20260504044004 48 0 0.0 0.0 0.00 0.00 0.00 76 1014.4
20260504043504 47 0 0.0 0.0 0.00 0.00 0.00 78 1014.3
20260504042506 45 0 0.0 0.0 0.00 0.00 0.00 79 1014.2
20260504042004 45 0 0.0 0.0 0.00 0.00 0.00 79 1014.3
20260504041504 44 0 0.0 0.0 0.00 0.00 0.00 79 1014.3
20260504041004 44 0 0.0 0.0 0.00 0.00 0.00 79 1014.3
20260504040504 44 0 0.0 0.0 0.00 0.00 0.00 79 1014.3
20260504040004 44 0 0.0 0.0 0.00 0.00 0.00 79 1014.3
20260504035506 44 0 0.0 0.0 0.00 0.00 0.00 79 1014.2
20260504035005 44 0 0.0 0.0 0.00 0.00 0.00 79 1014.2
20260504034005 44 0 0.0 0.0 0.00 0.00 0.00 78 1014.1
20260504033504 44 0 0.0 0.0 0.00 0.00 0.00 78 1014.2
20260504033004 44 0 0.0 0.0 0.00 0.00 0.00 78 1014.1
20260504032506 44 0 0.0 0.0 0.00 0.00 0.00 78 1014.0
20260504032005 45 0 0.0 0.0 0.00 0.00 0.00 77 1014.0
20260504031006 45 0 0.0 0.0 0.00 0.00 0.00 77 1014.0
20260504030005 45 0 0.0 0.0 0.00 0.00 0.00 77 1014.0
20260504025505 45 0 0.0 0.0 0.00 0.00 0.00 76 1013.9
20260504025004 45 0 0.0 0.0 0.00 0.00 0.00 76 1013.9
20260504024504 46 0 0.0 0.0 0.00 0.00 0.00 76 1013.9
20260504024006 45 0 0.0 0.0 0.00 0.00 0.00 77 1013.9
20260504023506 45 0 0.0 0.0 0.00 0.00 0.00 77 1013.8
20260504023006 45 0 0.0 0.0 0.00 0.00 0.00 77 1013.8
20260504022504 45 0 0.0 0.0 0.00 0.00 0.00 77 1013.8
20260504022005 45 0 0.0 0.0 0.00 0.00 0.00 77 1013.8
20260504021505 46 0 0.0 0.0 0.00 0.00 0.00 77 1013.8
20260504021006 46 0 0.0 0.0 0.00 0.00 0.00 76 1013.9
20260504020504 46 0 0.0 0.0 0.00 0.00 0.00 76 1013.9
20260504020006 46 0 0.0 0.0 0.00 0.00 0.00 75 1013.9
20260504015505 47 0 0.0 0.0 0.00 0.00 0.00 75 1014.0
20260504015005 47 0 0.0 0.0 0.00 0.00 0.00 74 1014.0
20260504014005 48 0 0.0 0.0 0.00 0.00 0.00 72 1014.0
20260504013505 48 0 0.0 0.0 0.00 0.00 0.00 71 1014.0
20260504013006 49 0 0.0 0.0 0.00 0.00 0.00 71 1014.0
20260504012505 49 0 0.0 0.0 0.00 0.00 0.00 69 1014.0
20260504012005 50 0 0.0 0.0 0.00 0.00 0.00 67 1014.0
20260504011505 51 0 0.0 0.0 0.00 0.00 0.00 66 1014.0
20260504011004 52 0 0.0 0.0 0.00 0.00 0.00 66 1014.0
20260504010005 50 0 0.0 0.0 0.00 0.00 0.00 69 1014.0
20260504005506 50 0 0.0 0.0 0.00 0.00 0.00 69 1014.0
20260504005005 49 0 0.0 0.0 0.00 0.00 0.00 70 1014.0
20260504004506 49 0 0.0 0.0 0.00 0.00 0.00 70 1014.0
20260504004006 49 0 0.0 0.0 0.00 0.00 0.00 71 1014.1
20260504003505 49 0 0.0 0.0 0.00 0.00 0.00 72 1014.1
20260504003006 49 0 0.0 0.0 0.00 0.00 0.00 73 1014.1
20260504002507 48 0 0.0 0.0 0.00 0.00 0.00 74 1014.1
20260504002006 48 0 0.0 0.0 0.00 0.00 0.00 75 1014.1
20260504001506 48 0 0.0 0.0 0.00 0.00 0.00 75 1014.2
20260504001005 47 0 0.0 0.0 0.00 0.00 0.00 77 1014.2
20260504000506 47 0 0.0 0.0 0.00 0.00 0.00 77 1014.2
20260504000005 47 0 0.0 0.0 0.00 0.00 0.00 77 1014.2
20260503235506 47 0 0.0 0.0 0.00 0.00 0.00 76 1014.3
20260503235005 47 0 0.0 0.0 0.00 0.00 0.00 76 1014.3
20260503234506 47 0 0.0 0.0 0.00 0.00 0.00 75 1014.3
20260503234006 47 0 0.0 0.0 0.00 0.00 0.00 75 1014.3
20260503233505 48 0 0.0 0.0 0.00 0.00 0.00 74 1014.3
20260503233005 48 0 0.0 0.0 0.00 0.00 0.00 74 1014.3
20260503232506 48 0 0.0 0.0 0.00 0.00 0.00 74 1014.3
20260503232005 48 0 0.0 0.0 0.00 0.00 0.00 73 1014.4
20260503231005 49 0 0.0 0.0 0.00 0.00 0.00 73 1014.5
20260503230505 49 0 0.0 0.0 0.00 0.00 0.00 73 1014.5
20260503230005 49 0 0.0 0.0 0.00 0.00 0.00 72 1014.5
20260503225932 49 0 0.0 0.0 0.00 0.00 0.00 72 1014.5
20260503224932 50 0 0.0 0.0 0.00 0.00 0.00 70 1014.5
20260503224432 51 0 0.0 0.0 0.00 0.00 0.00 69 1014.6
20260503223932 51 0 0.0 0.0 0.00 0.00 0.00 69 1014.6
20260503223432 51 0 0.0 0.0 0.00 0.00 0.00 68 1014.5
20260503222932 52 0 0.0 0.0 0.00 0.00 0.00 66 1014.6
20260503222432 53 0 0.0 0.0 0.00 0.00 0.00 65 1014.6
20260503221932 53 0 0.0 0.0 0.00 0.00 0.00 63 1014.5
20260503221432 53 0 0.0 0.0 0.00 0.00 0.00 63 1014.6
20260503220933 53 0 0.0 0.0 0.00 0.00 0.00 65 1014.6
20260503220432 53 0 0.0 0.0 0.00 0.00 0.00 66 1014.7
20260503215933 53 0 0.0 0.0 0.00 0.00 0.00 67 1014.7
20260503215431 52 0 0.0 0.0 0.00 0.00 0.00 68 1014.6
20260503214433 53 0 0.0 0.0 0.00 0.00 0.00 68 1014.6
20260503213433 53 0 0.0 0.0 0.00 0.00 0.00 68 1014.6
20260503212932 53 0 0.0 0.0 0.00 0.00 0.00 69 1014.6
20260503212434 53 0 0.0 0.0 0.00 0.00 0.00 69 1014.6
20260503211933 53 0 0.0 0.0 0.00 0.00 0.00 70 1014.6
20260503211432 53 0 0.0 0.0 0.00 0.00 0.00 71 1014.5
20260503210931 53 0 0.0 0.0 0.00 0.00 0.00 71 1014.5
20260503210431 53 0 0.0 0.0 0.00 0.00 0.00 72 1014.6
20260503205932 53 0 0.0 0.0 0.00 0.00 0.00 73 1014.7
20260503205433 53 0 0.0 0.0 0.00 0.00 0.00 74 1014.7
20260503204932 53 0 0.0 0.0 0.00 0.00 0.00 74 1014.7
20260503204431 53 0 0.0 0.0 0.00 0.00 0.00 74 1014.7
20260503203933 53 0 0.0 0.0 0.00 0.00 0.00 74 1014.6
20260503203432 53 0 0.0 0.0 0.00 0.00 0.00 74 1014.6
20260503202933 53 0 0.0 0.0 0.00 0.00 0.00 74 1014.6
20260503202432 54 0 0.0 0.0 0.00 0.00 0.00 73 1014.6
20260503201932 54 0 0.0 0.0 0.00 0.00 0.00 72 1014.6
20260503201432 54 0 0.0 0.0 0.00 0.00 0.00 72 1014.5
20260503200932 55 0 0.0 0.0 0.00 0.00 0.00 71 1014.6
20260503200432 55 0 0.0 0.0 0.00 0.00 0.00 70 1014.5
20260503195932 55 0 0.0 0.0 0.00 0.00 0.00 70 1014.5
20260503195432 56 0 0.0 0.0 0.00 0.00 0.00 69 1014.4